Hourly Weather Holokam'yanka

Today, 11 April, Sunday

Time Temperature Precipitation Wind Pressure Humidity
00:00 +5°C° 0 mm 3 mps 746 mmHg 74%
01:00 +5°C° 0 mm 3 mps 746 mmHg 75%
02:00 +5°C° 0 mm 3 mps 746 mmHg 75%
03:00 +5°C° 0 mm 3 mps 746 mmHg 76%
04:00 +5°C° 0 mm 3 mps 746 mmHg 76%
05:00 +4°C° 0 mm 3 mps 746 mmHg 77%
06:00 +7°C° 0 mm 3 mps 746 mmHg 73%
07:00 +7°C° 0 mm 4 mps 747 mmHg 69%
08:00 +8°C° 0 mm 4 mps 747 mmHg 65%
09:00 +11°C° 0 mm 4 mps 747 mmHg 60%
10:00 +13°C° 0 mm 5 mps 747 mmHg 54%
11:00 +14°C° 0 mm 5 mps 747 mmHg 48%
12:00 +15°C° 0 mm 6 mps 746 mmHg 46%
13:00 +16°C° 0 mm 6 mps 746 mmHg 45%
14:00 +16°C° 0 mm 6 mps 746 mmHg 43%
15:00 +16°C° 0 mm 6 mps 746 mmHg 46%
16:00 +16°C° 0 mm 5 mps 745 mmHg 49%
17:00 +16°C° 0 mm 5 mps 745 mmHg 51%
18:00 +14°C° 0 mm 5 mps 745 mmHg 54%
19:00 +13°C° 0 mm 5 mps 746 mmHg 56%
20:00 +10°C° 0 mm 5 mps 746 mmHg 59%
21:00 +9°C° 0 mm 5 mps 746 mmHg 59%
22:00 +9°C° 0 mm 5 mps 746 mmHg 58%
23:00 +8°C° 0 mm 5 mps 746 mmHg 58%

Tomorrow, 12 April, Monday

Time Temperature Precipitation Wind Pressure Humidity
00:00 +8°C° 0 mm 4 mps 746 mmHg 59%
01:00 +7°C° 0 mm 4 mps 746 mmHg 61%
02:00 +8°C° 0 mm 3 mps 746 mmHg 62%
03:00 +8°C° 0 mm 3 mps 746 mmHg 66%
04:00 +8°C° 0 mm 3 mps 746 mmHg 69%
05:00 +7°C° 0 mm 3 mps 746 mmHg 72%
06:00 +8°C° 0 mm 3 mps 746 mmHg 72%
07:00 +9°C° 0 mm 3 mps 746 mmHg 71%
08:00 +9°C° 0 mm 3 mps 745 mmHg 71%
09:00 +11°C° 0 mm 4 mps 745 mmHg 65%
10:00 +13°C° 0 mm 5 mps 745 mmHg 59%
11:00 +15°C° 0 mm 5 mps 745 mmHg 53%
12:00 +16°C° 0 mm 5 mps 745 mmHg 52%
13:00 +16°C° 0 mm 5 mps 745 mmHg 52%
14:00 +17°C° 0 mm 5 mps 744 mmHg 51%
15:00 +17°C° 0 mm 4 mps 744 mmHg 54%
16:00 +17°C° 0 mm 3 mps 744 mmHg 57%
17:00 +16°C° 0 mm 3 mps 744 mmHg 60%
18:00 +15°C° 0.1 mm 2 mps 744 mmHg 64%
19:00 +14°C° 0.1 mm 2 mps 744 mmHg 69%
20:00 +13°C° 0.1 mm 1 mps 744 mmHg 73%
21:00 +13°C° 0 mm 1 mps 744 mmHg 74%
22:00 +13°C° 0 mm 1 mps 744 mmHg 76%
23:00 +13°C° 0 mm 1 mps 744 mmHg 77%

Day after tomorrow, 13 April, Tuesday

Time Temperature Precipitation Wind Pressure Humidity
00:00 +12°C° 0 mm 1 mps 744 mmHg 79%
01:00 +12°C° 0 mm 1 mps 744 mmHg 80%
02:00 +12°C° 0 mm 1 mps 744 mmHg 82%
03:00 +10°C° 0 mm 2 mps 744 mmHg 84%
04:00 +10°C° 0 mm 2 mps 744 mmHg 87%
05:00 +9°C° 0 mm 3 mps 744 mmHg 89%
06:00 +9°C° 0 mm 3 mps 744 mmHg 89%
07:00 +9°C° 0 mm 3 mps 744 mmHg 88%
08:00 +8°C° 0 mm 4 mps 745 mmHg 87%
09:00 +8°C° 0 mm 4 mps 745 mmHg 85%
10:00 +10°C° 0 mm 4 mps 745 mmHg 83%
11:00 +10°C° 0 mm 3 mps 745 mmHg 81%
12:00 +11°C° 0 mm 4 mps 745 mmHg 79%
13:00 +11°C° 0 mm 4 mps 744 mmHg 77%
14:00 +11°C° 0 mm 4 mps 744 mmHg 75%
15:00 +10°C° 0 mm 5 mps 744 mmHg 77%
16:00 +9°C° 0 mm 5 mps 744 mmHg 79%
17:00 +8°C° 0 mm 6 mps 743 mmHg 81%
18:00 +8°C° 0 mm 6 mps 743 mmHg 82%
19:00 +7°C° 0 mm 6 mps 743 mmHg 83%
20:00 +6°C° 0 mm 5 mps 743 mmHg 84%
21:00 +6°C° 0 mm 5 mps 743 mmHg 84%
22:00 +6°C° 0 mm 5 mps 743 mmHg 84%
23:00 +6°C° 0 mm 5 mps 743 mmHg 84%

14 April, Wednesday

Time Temperature Precipitation Wind Pressure Humidity
00:00 +5°C° 0 mm 5 mps 742 mmHg 84%
01:00 +5°C° 0 mm 5 mps 742 mmHg 84%
02:00 +5°C° 0 mm 5 mps 742 mmHg 84%
03:00 +5°C° 0 mm 5 mps 742 mmHg 84%
04:00 +3°C° 0 mm 5 mps 741 mmHg 83%
05:00 +3°C° 0 mm 5 mps 741 mmHg 82%
06:00 +3°C° 0 mm 5 mps 741 mmHg 82%
07:00 +3°C° 0 mm 5 mps 741 mmHg 82%
08:00 +3°C° 0 mm 5 mps 742 mmHg 81%
09:00 +2°C° 0.1 mm 5 mps 742 mmHg 83%
10:00 +2°C° 0.1 mm 5 mps 742 mmHg 85%
11:00 +2°C° 0.1 mm 5 mps 742 mmHg 86%
12:00 +2°C° 0.1 mm 5 mps 742 mmHg 88%
13:00 +1°C° 0.1 mm 5 mps 742 mmHg 90%
14:00 +1°C° 0.1 mm 5 mps 742 mmHg 92%
15:00 +1°C° 0.2 mm 5 mps 742 mmHg 93%
16:00 +1°C° 0.2 mm 4 mps 741 mmHg 94%
17:00 +1°C° 0.2 mm 4 mps 741 mmHg 96%
18:00 0°C° 0.2 mm 4 mps 741 mmHg 96%
19:00 0°C° 0.2 mm 4 mps 742 mmHg 97%
20:00 0°C° 0.2 mm 4 mps 742 mmHg 98%
21:00 +1°C° 0.1 mm 3 mps 742 mmHg 98%
22:00 +1°C° 0.1 mm 3 mps 741 mmHg 98%
23:00 +1°C° 0.1 mm 3 mps 741 mmHg 98%

15 April, Thursday

Time Temperature Precipitation Wind Pressure Humidity
00:00 +1°C° 0.1 mm 3 mps 741 mmHg 98%
01:00 +2°C° 0.1 mm 2 mps 741 mmHg 99%
02:00 +2°C° 0.1 mm 2 mps 741 mmHg 99%
03:00 +2°C° 0.1 mm 2 mps 741 mmHg 99%
04:00 +2°C° 0.1 mm 2 mps 741 mmHg 99%
05:00 +2°C° 0.1 mm 2 mps 741 mmHg 99%
06:00 +3°C° 0.1 mm 1 mps 741 mmHg 99%
07:00 +3°C° 0.1 mm 1 mps 742 mmHg 98%
08:00 +3°C° 0.1 mm 1 mps 742 mmHg 98%
09:00 +3°C° 0.1 mm 1 mps 742 mmHg 98%
10:00 +3°C° 0.1 mm 1 mps 742 mmHg 98%
11:00 +4°C° 0.1 mm 1 mps 742 mmHg 97%
12:00 +4°C° 0 mm 1 mps 743 mmHg 96%
13:00 +3°C° 0 mm 2 mps 743 mmHg 96%
14:00 +4°C° 0 mm 2 mps 743 mmHg 95%
15:00 +4°C° 0 mm 2 mps 743 mmHg 94%
16:00 +4°C° 0 mm 2 mps 743 mmHg 93%
17:00 +5°C° 0 mm 2 mps 743 mmHg 92%
18:00 +3°C° 0.3 mm 3 mps 743 mmHg 93%
19:00 +3°C° 0.3 mm 3 mps 743 mmHg 95%
20:00 +3°C° 0.3 mm 3 mps 743 mmHg 96%
21:00 +3°C° 0.3 mm 4 mps 743 mmHg 96%
22:00 +3°C° 0.3 mm 4 mps 743 mmHg 96%
23:00 +4°C° 0.3 mm 4 mps 743 mmHg 95%

16 April, Friday

Time Temperature Precipitation Wind Pressure Humidity
00:00 +4°C° 0.2 mm 4 mps 743 mmHg 95%
01:00 +4°C° 0.2 mm 4 mps 743 mmHg 95%
02:00 +4°C° 0.2 mm 4 mps 743 mmHg 95%
03:00 +3°C° 0 mm 4 mps 743 mmHg 95%
04:00 +3°C° 0 mm 3 mps 743 mmHg 95%
05:00 +3°C° 0 mm 3 mps 743 mmHg 95%
06:00 +3°C° 0 mm 4 mps 744 mmHg 94%
07:00 +3°C° 0 mm 4 mps 744 mmHg 93%
08:00 +3°C° 0 mm 4 mps 744 mmHg 92%
09:00 +3°C° 0 mm 4 mps 744 mmHg 92%
10:00 +4°C° 0 mm 4 mps 745 mmHg 92%
11:00 +4°C° 0 mm 4 mps 745 mmHg 92%
12:00 +4°C° 0 mm 4 mps 745 mmHg 89%
13:00 +5°C° 0 mm 4 mps 745 mmHg 86%
14:00 +6°C° 0 mm 5 mps 746 mmHg 83%
15:00 +6°C° 0 mm 5 mps 746 mmHg 83%
16:00 +6°C° 0 mm 5 mps 746 mmHg 83%
17:00 +6°C° 0 mm 5 mps 746 mmHg 84%
18:00 +5°C° 0.1 mm 4 mps 746 mmHg 87%
19:00 +5°C° 0.1 mm 4 mps 747 mmHg 90%
20:00 +4°C° 0.1 mm 4 mps 747 mmHg 93%
21:00 +4°C° 0 mm 4 mps 747 mmHg 94%
22:00 +4°C° 0 mm 4 mps 747 mmHg 95%
23:00 +4°C° 0 mm 4 mps 747 mmHg 96%
Show more